Language: 


Des rapports , des résumés tant et plus, au choix de chacun....


Données statistiques de la station
Quotidien Rapport Janvier 24, 2018 Unités:  Métrique    Anglais   les deux
« Précédent Jour
Suivant Jour »
Quotidien Hebdomadaire Mensuel Annuel Actuel
  Haut: Bas: Moyen:
Température: -17.8 °C -17.8 °C -11.1 °C
Pt de rosée: -17.8 °C -13.9 °C -11.6 °C
Humidité: Humidity % 0 % 87 %
Vitesse du vent: 0 km/h 0 km/h 28.8 km/h
Rafales: 0 km/h - -
Vent:- - SW
Pression: 0 hPa 34097 hPa -
Précipitation: 109.22 mm    
Historical Graphs
 
 
Données statistiques pour Janvier 24, 2018
Heure Température Point de rosée Pression Vent Vitesse du vent Refales Humidité Pluie (taux horaire)
-17.8 °C -17.8 °C 0 hPa Calm     Humidity % 0 mm
00:02 -11.2 °C -11.1 °C 34428.8 hPa SSW 16.9 km/h 16.9 km/h 98 % 12.7 mm
00:07 -11.2 °C -11.1 °C 34428.8 hPa SSW 16.9 km/h 16.9 km/h 98 % 25.4 mm
00:17 -11.2 °C -11.1 °C 34428.8 hPa SSW 16.9 km/h 16.9 km/h 98 % 25.4 mm
00:22 -11.2 °C -11.1 °C 34428.8 hPa SW 22 km/h 22 km/h 98 % 25.4 mm
00:27 -11.2 °C -11.1 °C 34428.8 hPa SW 22 km/h 22 km/h 98 % 25.4 mm
00:32 -11.2 °C -11.1 °C 34428.8 hPa SW 22 km/h 22 km/h 98 % 20.32 mm
00:43 -11.2 °C -11.1 °C 34428.8 hPa SW 22 km/h 22 km/h 98 % 20.32 mm
00:48 -11.2 °C -11.1 °C 34428.8 hPa SW 22 km/h 22 km/h 98 % 20.32 mm
00:53 -11.1 °C -11.1 °C 34428.8 hPa SW 22 km/h 22 km/h 98 % 7.62 mm
00:58 -11.1 °C -11.1 °C 34428.8 hPa SW 22 km/h 22 km/h 98 % 20.32 mm
01:03 -11.1 °C -11.1 °C 34428.8 hPa SW 22 km/h 22 km/h 98 % 20.32 mm
01:08 -11.1 °C -11.1 °C 34428.8 hPa SW 22 km/h 22 km/h 98 % 7.62 mm
01:13 -11.1 °C -11.1 °C 34428.8 hPa SW 22 km/h 22 km/h 98 % 7.62 mm
01:18 -11.1 °C -11.1 °C 34428.8 hPa SW 22 km/h 22 km/h 98 % 7.62 mm
01:23 -11.1 °C -11.1 °C 34428.8 hPa SW 22 km/h 22 km/h 98 % 7.62 mm
01:28 -11.1 °C -11.1 °C 34428.8 hPa SW 22 km/h 22 km/h 98 % 7.62 mm
01:33 -11.1 °C -11.1 °C 34405.1 hPa SW 22 km/h 22 km/h 98 % 7.62 mm
01:38 -11.1 °C -11.1 °C 34405.1 hPa SW 22 km/h 22 km/h 98 % 7.62 mm
01:48 -11.1 °C -11.1 °C 34405.1 hPa SW 22 km/h 22 km/h 98 % 7.62 mm
01:53 -11.1 °C -11.1 °C 34405.1 hPa SW 22 km/h 22 km/h 98 % 7.62 mm
02:03 -11.1 °C -11.1 °C 34428.8 hPa SW 22 km/h 22 km/h 98 % 0 mm
02:08 -11.1 °C -11.1 °C 34428.8 hPa SW 22 km/h 22 km/h 98 % 0 mm
02:13 -11.1 °C -11.1 °C 34428.8 hPa SW 22 km/h 22 km/h 98 % 7.62 mm
02:18 -11.1 °C -11.1 °C 34428.8 hPa SW 22 km/h 22 km/h 98 % 7.62 mm
02:23 -11.1 °C -11.1 °C 34428.8 hPa SW 22 km/h 22 km/h 98 % 7.62 mm
02:33 -11.1 °C -11.1 °C 34476.3 hPa SW 22 km/h 22 km/h 98 % 7.62 mm
02:38 -11.1 °C -11.1 °C 34476.3 hPa SW 22 km/h 22 km/h 98 % 7.62 mm
02:43 -11.1 °C -11.1 °C 34476.3 hPa SW 22 km/h 22 km/h 98 % 7.62 mm
02:48 -11.1 °C -11.1 °C 34428.8 hPa SW 22 km/h 22 km/h 98 % 7.62 mm
02:53 -11.1 °C -11.1 °C 34428.8 hPa SW 22 km/h 22 km/h 98 % 7.62 mm
02:58 -11.1 °C -11.1 °C 34428.8 hPa SW 22 km/h 22 km/h 98 % 7.62 mm
03:03 -11.1 °C -11.1 °C 34428.8 hPa SW 22 km/h 22 km/h 98 % 7.62 mm
03:08 -11.1 °C -11.1 °C 34428.8 hPa SW 22 km/h 22 km/h 98 % 7.62 mm
03:13 -11.1 °C -11.1 °C 34428.8 hPa SW 22 km/h 22 km/h 98 % 0 mm
03:18 -11.1 °C -11.1 °C 34428.8 hPa SW 22 km/h 22 km/h 98 % 0 mm
03:23 -11.1 °C -11.1 °C 34428.8 hPa SW 22 km/h 22 km/h 98 % 0 mm
03:29 -11.1 °C -11.1 °C 34405.1 hPa SW 22 km/h 22 km/h 98 % 0 mm
03:34 -11.1 °C -11.1 °C 34405.1 hPa SW 22 km/h 22 km/h 98 % 0 mm
03:39 -11.1 °C -11.1 °C 34405.1 hPa SW 22 km/h 22 km/h 98 % 0 mm
03:44 -11.1 °C -11.1 °C 34405.1 hPa SW 22 km/h 22 km/h 98 % 0 mm
03:49 -11.1 °C -11.1 °C 34405.1 hPa SW 22 km/h 22 km/h 98 % 0 mm
03:54 -11.1 °C -11.1 °C 34405.1 hPa SW 22 km/h 22 km/h 98 % 0 mm
03:59 -11.1 °C -11.1 °C 34405.1 hPa SW 22 km/h 22 km/h 98 % 0 mm
04:04 -11.1 °C -11.1 °C 34405.1 hPa SW 22 km/h 22 km/h 98 % 0 mm
04:09 -11.1 °C -11.1 °C 34405.1 hPa SW 22 km/h 22 km/h 98 % 0 mm
04:14 -11 °C -11.1 °C 34371.3 hPa SW 22 km/h 22 km/h 98 % 0 mm
04:19 -11 °C -11.1 °C 34371.3 hPa SW 22 km/h 22 km/h 98 % 0 mm
04:24 -11 °C -11.1 °C 34371.3 hPa SW 22 km/h 22 km/h 98 % 0 mm
04:27 -11 °C -11.1 °C 34371.3 hPa SW 22 km/h 22 km/h 98 % 0 mm
04:32 -11 °C -11.1 °C 34371.3 hPa SSW 22.5 km/h 22.5 km/h 98 % 0 mm
04:37 -11 °C -11.1 °C 34371.3 hPa SSW 25.4 km/h 26.7 km/h 98 % 0 mm
04:47 -10.9 °C -10.6 °C 34371.3 hPa SSW 22 km/h 26.2 km/h 98 % 0 mm
04:52 -10.9 °C -10.6 °C 34371.3 hPa SSW 27.2 km/h 27.2 km/h 98 % 0 mm
04:57 -10.9 °C -10.6 °C 34371.3 hPa SW 23.8 km/h 27.2 km/h 98 % 0 mm
05:02 -10.9 °C -10.6 °C 34371.3 hPa SW 23.8 km/h 26.2 km/h 98 % 0 mm
05:07 -10.9 °C -10.6 °C 34371.3 hPa SW 14.5 km/h 27.7 km/h 98 % 0 mm
05:12 -10.9 °C -10.6 °C 34371.3 hPa South 20.9 km/h 34.8 km/h 98 % 0 mm
05:17 -10.9 °C -10.6 °C 34337.4 hPa SSW 25.4 km/h 34.8 km/h 98 % 0 mm
05:22 -10.9 °C -10.6 °C 34337.4 hPa SSW 18.7 km/h 28.5 km/h 98 % 0 mm
05:27 -10.9 °C -10.6 °C 34337.4 hPa South 25.4 km/h 31.9 km/h 98 % 0 mm
05:32 -10.9 °C -10.6 °C 34371.3 hPa SW 16.9 km/h 31.9 km/h 98 % 0 mm
05:37 -10.9 °C -10.6 °C 34371.3 hPa SSW 22.5 km/h 22.5 km/h 98 % 0 mm
05:42 -10.9 °C -10.6 °C 34371.3 hPa WSW 20.3 km/h 24.8 km/h 98 % 0 mm
05:47 -10.9 °C -10.6 °C 34371.3 hPa SW 19.2 km/h 33.2 km/h 98 % 0 mm
05:52 -10.8 °C -10.6 °C 34371.3 hPa South 33.2 km/h 33.2 km/h 98 % 0 mm
05:57 -10.9 °C -10.6 °C 34371.3 hPa SSW 22.5 km/h 33.2 km/h 98 % 0 mm
06:13 -10.9 °C -10.6 °C 34371.3 hPa SSW 14.5 km/h 24.8 km/h 98 % 0 mm
06:18 -10.9 °C -10.6 °C 34337.4 hPa SSW 25.4 km/h 25.4 km/h 98 % 0 mm
06:23 -10.9 °C -10.6 °C 34337.4 hPa SW 23.8 km/h 25.4 km/h 98 % 0 mm
06:28 -10.9 °C -10.6 °C 34337.4 hPa WSW 15.6 km/h 32.3 km/h 98 % 0 mm
06:33 -10.9 °C -10.6 °C 34337.4 hPa South 22 km/h 32.3 km/h 98 % 0 mm
06:43 -10.9 °C -10.6 °C 34337.4 hPa SSW 25.4 km/h 29 km/h 98 % 0 mm
06:48 -10.8 °C -10.6 °C 34337.4 hPa SW 16.9 km/h 36.5 km/h 98 % 0 mm
06:53 -10.8 °C -10.6 °C 34337.4 hPa SSW 14.5 km/h 36.5 km/h 98 % 0 mm
06:58 -10.8 °C -10.6 °C 34337.4 hPa SW 27.2 km/h 28.5 km/h 98 % 0 mm
07:03 -10.8 °C -10.6 °C 34337.4 hPa SSW 31.9 km/h 31.9 km/h 98 % 0 mm
07:08 -10.8 °C -10.6 °C 34337.4 hPa SW 26.7 km/h 33.2 km/h 98 % 0 mm
07:13 -10.8 °C -10.6 °C 34337.4 hPa WSW 32.3 km/h 34.8 km/h 98 % 0 mm
07:23 -10.8 °C -10.6 °C 34337.4 hPa SSW 25.4 km/h 32.3 km/h 98 % 0 mm
07:28 -10.8 °C -10.6 °C 34337.4 hPa SSW 25.4 km/h 25.4 km/h 98 % 0 mm
07:38 -10.8 °C -10.6 °C 34371.3 hPa SSW 25.4 km/h 25.4 km/h 98 % 0 mm
07:48 -10.8 °C -10.6 °C 34337.4 hPa SSW 25.4 km/h 25.4 km/h 98 % 0 mm
07:53 -10.8 °C -10.6 °C 34337.4 hPa SSW 25.4 km/h 25.4 km/h 98 % 0 mm
07:58 -10.8 °C -10.6 °C 34337.4 hPa SSW 25.4 km/h 25.4 km/h 98 % 0 mm
08:03 -10.7 °C -10.6 °C 34337.4 hPa SSW 25.4 km/h 25.4 km/h 98 % 0 mm
08:08 -10.7 °C -10.6 °C 34337.4 hPa SSW 25.4 km/h 25.4 km/h 98 % 0 mm
08:13 -10.8 °C -10.6 °C 34337.4 hPa SSW 25.4 km/h 25.4 km/h 98 % 0 mm
08:18 -10.8 °C -10.6 °C 34337.4 hPa SSW 25.4 km/h 25.4 km/h 98 % 0 mm
08:23 -10.8 °C -10.6 °C 34337.4 hPa SSW 25.4 km/h 25.4 km/h 98 % 0 mm
08:28 -10.7 °C -10.6 °C 34303.6 hPa SSW 25.4 km/h 25.4 km/h 98 % 0 mm
08:33 -10.8 °C -10.6 °C 34303.6 hPa SSW 25.4 km/h 25.4 km/h 98 % 0 mm
08:38 -10.7 °C -10.6 °C 34303.6 hPa SSW 25.4 km/h 25.4 km/h 98 % 0 mm
08:43 -10.7 °C -10.6 °C 34303.6 hPa SSW 25.4 km/h 25.4 km/h 98 % 0 mm
08:48 -10.7 °C -10.6 °C 34303.6 hPa SSW 25.4 km/h 25.4 km/h 98 % 0 mm
09:09 -10.7 °C -10.6 °C 34303.6 hPa SSW 25.4 km/h 25.4 km/h 98 % 0 mm
09:14 -10.6 °C -10.6 °C 34303.6 hPa SSW 25.4 km/h 25.4 km/h 98 % 0 mm
09:26 -17.8 °C -10.6 °C 34303.6 hPa Calm     0 % 0 mm
09:31 -17.8 °C -10.6 °C 34303.6 hPa Calm     0 % 0 mm
09:36 -17.8 °C -10.6 °C 34303.6 hPa Calm     0 % 0 mm
09:47 -17.8 °C -10.6 °C 34303.6 hPa Calm     0 % 0 mm
09:52 -17.8 °C -10.6 °C 34303.6 hPa Calm     0 % 0 mm
09:57 -17.8 °C -10.6 °C 34303.6 hPa Calm     0 % 0 mm
10:07 -17.8 °C -10.6 °C 34303.6 hPa Calm     0 % 0 mm
10:22 -10.4 °C -10.6 °C 34303.6 hPa Calm     97 % 0 mm
10:27 -10.4 °C -10.6 °C 34303.6 hPa South 33.6 km/h 50.5 km/h 97 % 0 mm
10:32 -10.3 °C -10.6 °C 34269.7 hPa SSW 34.1 km/h 50.5 km/h 96 % 0 mm
10:37 -10.3 °C -10.6 °C 34269.7 hPa South 32.3 km/h 42.2 km/h 96 % 0 mm
10:42 -10.3 °C -10.6 °C 34269.7 hPa SSW 25.4 km/h 42.2 km/h 96 % 0 mm
10:47 -10.3 °C -10.6 °C 34303.6 hPa SSW 38.3 km/h 60.3 km/h 96 % 0 mm
10:52 -10.3 °C -10.6 °C 34303.6 hPa SW 16.9 km/h 60.3 km/h 96 % 0 mm
10:57 -10.3 °C -10.6 °C 34303.6 hPa SSW 30.7 km/h 45.1 km/h 96 % 0 mm
11:02 -10.1 °C -10.6 °C 34303.6 hPa WSW 36 km/h 55.2 km/h 94 % 0 mm
11:07 -10.1 °C -10.6 °C 34303.6 hPa South 28.5 km/h 55.2 km/h 94 % 0 mm
11:12 -9.9 °C -10.6 °C 34303.6 hPa SSW 33.2 km/h 51.5 km/h 92 % 0 mm
11:17 -9.9 °C -10.6 °C 34303.6 hPa SSW 28.5 km/h 52 km/h 92 % 0 mm
11:22 -9.7 °C -10.6 °C 34303.6 hPa SSW 38.3 km/h 52 km/h 91 % 0 mm
11:27 -9.6 °C -10.6 °C 34303.6 hPa SSW 28.5 km/h 63.2 km/h 90 % 0 mm
11:32 -9.7 °C -10.6 °C 34303.6 hPa SSW 39.9 km/h 63.2 km/h 89 % 0 mm
11:37 -9.7 °C -10.6 °C 34303.6 hPa South 34.1 km/h 61.3 km/h 88 % 0 mm
11:42 -9.6 °C -10.6 °C 34303.6 hPa South 34.1 km/h 61.3 km/h 88 % 0 mm
11:47 -9.6 °C -10.6 °C 34269.7 hPa SSW 62.6 km/h 62.6 km/h 87 % 0 mm
11:52 -9.7 °C -10.6 °C 34269.7 hPa South 51.5 km/h 67.1 km/h 87 % 0 mm
11:57 -9.7 °C -10.6 °C 34269.7 hPa SSW 39.9 km/h 67.1 km/h 88 % 0 mm
12:02 -9.7 °C -10.6 °C 34269.7 hPa SSW 42.2 km/h 66.6 km/h 89 % 0 mm
12:07 -9.7 °C -10.6 °C 34269.7 hPa SSW 26.2 km/h 66.6 km/h 90 % 0 mm
12:12 -9.7 °C -10.6 °C 34269.7 hPa SSW 29 km/h 59.1 km/h 90 % 0 mm
12:17 -9.6 °C -10.6 °C 34235.8 hPa SSW 51 km/h 69.4 km/h 89 % 0 mm
12:22 -9.7 °C -10.6 °C 34235.8 hPa WSW 59.5 km/h 69.4 km/h 89 % 0 mm
12:27 -9.6 °C -10.6 °C 34235.8 hPa SSW 36.5 km/h 59.5 km/h 89 % 0 mm
12:32 -9.6 °C -10.6 °C 34198.6 hPa SW 43 km/h 67.9 km/h 87 % 0 mm
12:38 -9.5 °C -10.6 °C 34198.6 hPa SSW 45.9 km/h 67.9 km/h 86 % 0 mm
12:43 -9.5 °C -10.6 °C 34198.6 hPa SSW 41.2 km/h 63.2 km/h 85 % 0 mm
12:48 -9.5 °C -10.6 °C 34235.8 hPa SSW 39.4 km/h 62.6 km/h 84 % 0 mm
12:53 -9.6 °C -11.1 °C 34235.8 hPa SW 63.7 km/h 63.7 km/h 84 % 0 mm
12:58 -9.6 °C -11.1 °C 34235.8 hPa SSW 45.9 km/h 65 km/h 83 % 0 mm
13:03 -9.6 °C -11.1 °C 34235.8 hPa SSW 32.3 km/h 65 km/h 83 % 0 mm
13:08 -9.6 °C -11.1 °C 34235.8 hPa SSW 44.6 km/h 65 km/h 83 % 0 mm
13:13 -9.6 °C -11.1 °C 34235.8 hPa South 57.3 km/h 65 km/h 83 % 0 mm
13:18 -9.7 °C -11.1 °C 34235.8 hPa South 53.3 km/h 63.2 km/h 82 % 0 mm
13:23 -9.7 °C -11.1 °C 34235.8 hPa SSW 50.5 km/h 70.6 km/h 81 % 0 mm
13:28 -9.8 °C -11.7 °C 34235.8 hPa WSW 38.3 km/h 76.4 km/h 81 % 0 mm
13:33 -9.7 °C -11.1 °C 34235.8 hPa SSW 60.8 km/h 76.4 km/h 81 % 0 mm
13:38 -9.7 °C -11.1 °C 34235.8 hPa SW 39.9 km/h 66 km/h 81 % 0 mm
13:43 -9.7 °C -11.1 °C 34235.8 hPa SSW 39.9 km/h 66 km/h 80 % 0 mm
13:48 -9.7 °C -11.7 °C 34198.6 hPa SSW 62.6 km/h 83.4 km/h 78 % 0 mm
13:53 -9.7 °C -11.7 °C 34198.6 hPa SW 61.3 km/h 83.4 km/h 79 % 0 mm
13:58 -9.7 °C -11.7 °C 34198.6 hPa SW 63.7 km/h 68.4 km/h 78 % 0 mm
14:03 -9.7 °C -11.7 °C 34198.6 hPa SSW 68.9 km/h 68.9 km/h 78 % 0 mm
14:08 -9.8 °C -11.7 °C 34198.6 hPa SSW 45.1 km/h 68.9 km/h 79 % 0 mm
14:13 -9.8 °C -11.7 °C 34198.6 hPa SW 45.1 km/h 68.9 km/h 78 % 0 mm
14:18 -9.8 °C -11.7 °C 34198.6 hPa SSW 44.1 km/h 63.2 km/h 78 % 0 mm
14:23 -9.8 °C -11.7 °C 34198.6 hPa SW 45.1 km/h 63.2 km/h 78 % 0 mm
14:28 -9.9 °C -11.7 °C 34198.6 hPa SSW 43.5 km/h 60.3 km/h 78 % 0 mm
14:33 -9.9 °C -11.7 °C 34198.6 hPa SW 62 km/h 62 km/h 77 % 0 mm
14:38 -9.9 °C -11.7 °C 34198.6 hPa SW 84.6 km/h 84.6 km/h 77 % 0 mm
14:43 -9.9 °C -12.2 °C 34164.7 hPa SW 60.8 km/h 84.6 km/h 77 % 0 mm
14:49 -9.9 °C -12.2 °C 34164.7 hPa SSW 45.9 km/h 62 km/h 78 % 0 mm
14:54 -9.9 °C -12.2 °C 34164.7 hPa South 62.6 km/h 62.6 km/h 78 % 0 mm
14:59 -9.9 °C -12.2 °C 34164.7 hPa SW 46.3 km/h 62.6 km/h 78 % 0 mm
15:04 -9.9 °C -11.7 °C 34164.7 hPa SSW 36.5 km/h 62.6 km/h 77 % 0 mm
15:19 -9.9 °C -12.2 °C 34164.7 hPa SSW 39.4 km/h 48.6 km/h 76 % 0 mm
15:24 -9.9 °C -12.2 °C 34164.7 hPa SSW 33.6 km/h 48.6 km/h 76 % 0 mm
15:34 -10 °C -12.2 °C 34164.7 hPa SSW 33.2 km/h 59.5 km/h 75 % 0 mm
15:39 -10 °C -12.2 °C 34164.7 hPa SSW 46.3 km/h 59.5 km/h 75 % 0 mm
15:44 -10 °C -12.2 °C 34164.7 hPa SW 38.3 km/h 51.5 km/h 75 % 0 mm
15:49 -10 °C -12.2 °C 34164.7 hPa SSW 39.4 km/h 51.5 km/h 75 % 0 mm
15:54 -10 °C -12.2 °C 34164.7 hPa SW 49.7 km/h 52.8 km/h 75 % 0 mm
15:59 -10 °C -12.2 °C 34164.7 hPa WSW 45.1 km/h 53.9 km/h 74 % 0 mm
16:04 -10 °C -12.2 °C 34164.7 hPa SW 37.5 km/h 57.9 km/h 74 % 0 mm
16:09 -10 °C -12.2 °C 34164.7 hPa SW 24.8 km/h 60.8 km/h 74 % 0 mm
16:19 -10 °C -12.2 °C 34130.9 hPa South 26.2 km/h 56.6 km/h 74 % 0 mm
16:24 -10.1 °C -12.8 °C 34130.9 hPa South 39.9 km/h 50.5 km/h 73 % 0 mm
16:29 -10.1 °C -12.8 °C 34130.9 hPa SW 44.1 km/h 58.6 km/h 73 % 0 mm
16:34 -10.1 °C -12.8 °C 34164.7 hPa SW 27.7 km/h 58.6 km/h 73 % 0 mm
16:39 -10.1 °C -12.8 °C 34164.7 hPa SW 25.4 km/h 58.6 km/h 74 % 0 mm
16:44 -10.1 °C -12.8 °C 34164.7 hPa SSW 26.7 km/h 46.3 km/h 73 % 0 mm
16:49 -10.1 °C -12.8 °C 34164.7 hPa SW 31.9 km/h 46.3 km/h 74 % 0 mm
16:54 -10.2 °C -12.8 °C 34164.7 hPa SSW 45.9 km/h 45.9 km/h 74 % 0 mm
16:59 -10.2 °C -12.8 °C 34164.7 hPa SSW 31.9 km/h 45.9 km/h 74 % 0 mm
17:04 -10.2 °C -12.8 °C 34164.7 hPa SSW 28.5 km/h 45.9 km/h 74 % 0 mm
17:09 -10.2 °C -12.8 °C 34164.7 hPa SSW 39.4 km/h 39.4 km/h 74 % 0 mm
17:14 -10.3 °C -12.8 °C 34164.7 hPa SSW 29 km/h 39.4 km/h 74 % 0 mm
17:30 -10.3 °C -12.8 °C 34164.7 hPa SSW 31.9 km/h 52 km/h 75 % 0 mm
17:35 -10.4 °C -12.8 °C 34164.7 hPa SSW 25.4 km/h 44.6 km/h 75 % 0 mm
17:40 -10.4 °C -12.8 °C 34164.7 hPa SSW 22.5 km/h 37 km/h 76 % 0 mm
17:45 -10.5 °C -12.8 °C 34164.7 hPa SW 33.2 km/h 46.3 km/h 77 % 0 mm
17:50 -10.5 °C -12.8 °C 34164.7 hPa SSW 27.7 km/h 50.5 km/h 77 % 0 mm
17:55 -10.6 °C -12.8 °C 34164.7 hPa SSW 26.2 km/h 50.5 km/h 77 % 0 mm
18:00 -10.6 °C -12.8 °C 34130.9 hPa South 22.5 km/h 46.3 km/h 77 % 0 mm
18:05 -10.6 °C -12.8 °C 34130.9 hPa South 27.7 km/h 51.5 km/h 78 % 0 mm
18:10 -10.6 °C -12.8 °C 34130.9 hPa SSW 43.5 km/h 51.5 km/h 78 % 0 mm
18:15 -10.6 °C -12.8 °C 34130.9 hPa SSW 27.7 km/h 50.5 km/h 78 % 0 mm
18:20 -10.6 °C -12.8 °C 34130.9 hPa South 38.3 km/h 57.3 km/h 78 % 0 mm
18:25 -10.6 °C -12.8 °C 34130.9 hPa South 40.7 km/h 57.3 km/h 78 % 0 mm
18:40 -10.7 °C -12.8 °C 34130.9 hPa SSW 46.3 km/h 58.6 km/h 78 % 0 mm
18:45 -10.7 °C -12.8 °C 34097 hPa South 33.2 km/h 58.6 km/h 78 % 0 mm
18:55 -10.7 °C -12.8 °C 34097 hPa SW 31.9 km/h 45.1 km/h 78 % 0 mm
19:00 -10.7 °C -12.8 °C 34130.9 hPa SW 41.2 km/h 45.9 km/h 78 % 0 mm
19:11 -10.7 °C -12.8 °C 34130.9 hPa SW 27.2 km/h 57.9 km/h 78 % 0 mm
19:21 -10.7 °C -12.8 °C 34097 hPa SSW 33.6 km/h 57.3 km/h 78 % 0 mm
19:30 -10.7 °C -12.8 °C 34130.9 hPa SSE 46.8 km/h 48.6 km/h 78 % 0 mm
19:36 -10.7 °C -12.2 °C 34130.9 hPa SW 31.9 km/h 48.6 km/h 80 % 0 mm
19:41 -10.8 °C -12.2 °C 34130.9 hPa SSW 43.5 km/h 45.9 km/h 82 % 0 mm
19:51 -10.8 °C -12.2 °C 34130.9 hPa SSW 23 km/h 49.7 km/h 82 % 0 mm
19:56 -10.8 °C -12.2 °C 34130.9 hPa SSW 31.9 km/h 52 km/h 82 % 0 mm
20:01 -10.8 °C -12.2 °C 34097 hPa SSW 51.5 km/h 56.6 km/h 81 % 0 mm
20:06 -10.7 °C -12.2 °C 34097 hPa SSW 44.1 km/h 56.6 km/h 80 % 0 mm
20:11 -10.7 °C -12.2 °C 34097 hPa SSW 45.1 km/h 49.7 km/h 80 % 0 mm
20:16 -10.7 °C -12.2 °C 34130.9 hPa SW 43.5 km/h 58.6 km/h 81 % 0 mm
20:21 -10.8 °C -12.2 °C 34130.9 hPa SSW 33.2 km/h 58.6 km/h 81 % 0 mm
20:26 -10.8 °C -12.2 °C 34130.9 hPa SSW 44.6 km/h 50.5 km/h 81 % 0 mm
20:31 -10.8 °C -12.2 °C 34130.9 hPa WSW 45.1 km/h 49.7 km/h 83 % 0 mm
20:36 -11.6 °C -13.3 °C 34130.9 hPa WSW 20.9 km/h 45.9 km/h 81 % 7.62 mm
20:41 -12.2 °C -13.9 °C 34130.9 hPa West 8 km/h 45.9 km/h 83 % 33.02 mm
20:46 -12.4 °C -13.3 °C 34164.7 hPa WSW 12.7 km/h 20.9 km/h 85 % 38.1 mm
20:51 -12.6 °C -13.9 °C 34164.7 hPa WNW 19.2 km/h 19.2 km/h 86 % 45.72 mm
21:01 -12.8 °C -13.3 °C 34198.6 hPa WNW 16.3 km/h 22.5 km/h 91 % 58.42 mm
21:06 -12.9 °C -13.3 °C 34198.6 hPa WNW 22.5 km/h 22.5 km/h 92 % 63.5 mm
21:11 -13 °C -13.3 °C 34198.6 hPa WNW 5.6 km/h 22.5 km/h 92 % 63.5 mm
21:16 -13.1 °C -13.3 °C 34164.7 hPa NW 15.6 km/h 32.3 km/h 94 % 63.5 mm
21:21 -13.1 °C -13.3 °C 34164.7 hPa WSW 7.6 km/h 34.1 km/h 94 % 71.12 mm
21:31 -13.1 °C -13.3 °C 34198.6 hPa Calm   29 km/h 95 % 71.12 mm
21:36 -13.2 °C -13.3 °C 34198.6 hPa SSW 11.1 km/h 29 km/h 96 % 63.5 mm
21:41 -13.2 °C -13.3 °C 34198.6 hPa West 15 km/h 24.8 km/h 96 % 45.72 mm
21:46 -13.2 °C -13.3 °C 34198.6 hPa WSW 14.5 km/h 24.8 km/h 97 % 38.1 mm
21:51 -13.2 °C -13.3 °C 34198.6 hPa West 23.8 km/h 23.8 km/h 97 % 33.02 mm
21:57 -13.2 °C -12.8 °C 34198.6 hPa West 14.5 km/h 23.8 km/h 98 % 20.32 mm
22:02 -13.2 °C -12.8 °C 34235.8 hPa West 14.5 km/h 23.8 km/h 98 % 20.32 mm
22:07 -13.2 °C -12.8 °C 34235.8 hPa WSW 15.6 km/h 15.6 km/h 98 % 12.7 mm
22:12 -13.2 °C -12.8 °C 34235.8 hPa WSW 15.6 km/h 15.6 km/h 98 % 12.7 mm
22:17 -13.2 °C -12.8 °C 34235.8 hPa WSW 15.6 km/h 15.6 km/h 98 % 12.7 mm
22:22 -13.2 °C -12.8 °C 34235.8 hPa WSW 22.5 km/h 22.5 km/h 98 % 7.62 mm
22:27 -13.2 °C -12.8 °C 34235.8 hPa WSW 22.5 km/h 22.5 km/h 98 % 12.7 mm
22:32 -13.2 °C -12.8 °C 34198.6 hPa WSW 22 km/h 22.5 km/h 98 % 12.7 mm
22:37 -13.2 °C -12.8 °C 34198.6 hPa WSW 17.9 km/h 32.3 km/h 98 % 12.7 mm
22:42 -13.2 °C -12.8 °C 34198.6 hPa WSW 22 km/h 29.5 km/h 98 % 7.62 mm
22:47 -13.2 °C -12.8 °C 34235.8 hPa WSW 32.3 km/h 34.1 km/h 98 % 7.62 mm
22:52 -13.2 °C -13.3 °C 34235.8 hPa WSW 36.5 km/h 36.5 km/h 98 % 7.62 mm
22:55 -13.2 °C -13.3 °C 34235.8 hPa WSW 26.7 km/h 36.5 km/h 98 % 7.62 mm
23:00 -13.2 °C -13.3 °C 34235.8 hPa West 20.9 km/h 36.5 km/h 98 % 7.62 mm
23:05 -13.2 °C -13.3 °C 34235.8 hPa WSW 31.9 km/h 33.6 km/h 98 % 7.62 mm
23:10 -13.2 °C -13.3 °C 34235.8 hPa WSW 33.2 km/h 39.4 km/h 98 % 7.62 mm
23:15 -13.2 °C -13.3 °C 34235.8 hPa WSW 22 km/h 45.9 km/h 98 % 7.62 mm
23:20 -13.3 °C -13.3 °C 34235.8 hPa WSW 22.5 km/h 45.9 km/h 98 % 7.62 mm
23:25 -13.3 °C -13.3 °C 34235.8 hPa WSW 22 km/h 33.6 km/h 98 % 0 mm
23:31 -13.3 °C -13.3 °C 34235.8 hPa West 20.9 km/h 28.5 km/h 98 % 0 mm
23:36 -13.3 °C -13.3 °C 34235.8 hPa WSW 19.2 km/h 28.5 km/h 98 % 0 mm
23:41 -13.3 °C -13.3 °C 34235.8 hPa SSW 27.2 km/h 28.5 km/h 98 % 0 mm
23:46 -13.3 °C -13.3 °C 34235.8 hPa WSW 22 km/h 31.4 km/h 98 % 0 mm
23:51 -13.3 °C -13.3 °C 34235.8 hPa SW 22 km/h 31.4 km/h 98 % 0 mm
23:56 -13.4 °C -13.3 °C 34235.8 hPa WSW 19.6 km/h 27.2 km/h 98 % 0 mm
Le Gheer Warneton
Courtoisie de Weather Underground - 2.25 mb

Mise a jour : 24/02/2018 15:12:12
Généré par Cumulus 1.9.4 (1099)